Location: Strawberry
(45.6646°N, 111.9596°W)
Time: 08:43:08
(UTC+00:00)

HuskySat-1 - Visible Passes

Search period start: 27 November 2022 00:00
Search period end: 07 December 2022 00:00
Orbit: 366 x 381 km, 51.6° (Epoch: 26 November)

Date Brightness Start Highest point End Pass type
(mag) Time Alt. Az. Time Alt. Az. Time Alt. Az.
30 Nov ? 01:37:29 10° S 01:38:24 15° SSE 01:38:24 15° SSE visible
01 Dec ? 02:09:15 10° SW 02:10:18 19° SW 02:10:18 19° SW visible
02 Dec ? 01:06:44 10° SSW 01:09:18 25° SE 01:09:57 23° ESE visible
02 Dec ? 02:41:55 10° W 02:41:56 10° W 02:41:56 10° W visible
03 Dec ? 01:38:34 10° WSW 01:41:21 71° SW 01:41:21 71° SW visible
04 Dec ? 00:35:28 10° SSW 00:38:17 36° SE 00:40:33 14° E visible
04 Dec ? 02:11:03 10° W 02:12:29 23° WNW 02:12:29 23° WNW visible
05 Dec ? 01:07:15 10° WSW 01:10:18 74° NNW 01:11:28 33° NE visible
06 Dec ? 01:39:31 10° W 01:42:10 34° NNW 01:42:10 34° NNW visible
